Weather History for La Porte, IN

Change the Weather History Date:

Thursday, January 31, 2013

  Actual Average (KVPZ) Record (KVPZ)
Temperature  
Mean Temperature 15 °F 24 °F  
Max Temperature 22 °F 32 °F 56 °F (2012)
Min Temperature 8 °F 17 °F -10 °F (2004)
Degree Days  
Heating Degree Days 50 41  
Month to date heating degree days 1286  
Since 1 July heating degree days 3685  
Cooling Degree Days 0 0  
Month to date cooling degree days 0  
Year to date cooling degree days 0  
Moisture  
Dew Point 9 °F    
Average Humidity 76    
Maximum Humidity 89    
Minimum Humidity 64    
Precipitation  
Precipitation 0.00 in 0.06 in 0.51 in (2002)
Month to date precipitation 1.75  
Year to date precipitation 1.75  
Sea Level Pressure  
Sea Level Pressure 29.83 in    
Wind  
Wind Speed 17 mph (West)    
Max Wind Speed 21 mph    
Max Gust Speed 31 mph    
Visibility 4 miles    
Events Snow    
T = Trace of Precipitation, MM = Missing Value Source: NWS Daily Summary

Daily Weather History Graph

Daily Weather History Graph

Search for Another Location

Airport:

Trip Planner

Search our weather history database for the weather conditions in past years. The results will help you decide how hot, cold, wet, or windy it might be!

Date:

Astronomy

Jan. 31, 2013 Rise Set
Actual Time 6:59 AM CST 5:01 PM CST
Civil Twilight 6:30 AM CST 5:31 PM CST
Nautical Twilight 5:56 AM CST 6:04 PM CST
Astronomical Twilight 5:24 AM CST 6:37 PM CST
Moon 10:08 PM CST 8:54 AM CST
Length of Visible Light 11h 01m
Length of Day
10h 02m
Waning Gibbous, 79% of the Moon is Illuminated
Jan 31
Waning Gibbous
Feb 3
Last Quarter
Feb 10
New
Feb 17
First Quarter
Feb 25
Full

Hourly Weather History & Observations

Time (CST) Temp. Windchill Dew Point Humidity Pressure Visibility Wind Dir Wind Speed Gust Speed Precip Events Conditions
12:15 AM 22.5 °F 7.2 °F 19.2 °F 87% 29.58 in 1.8 mi West 20.7 mph 28.8 mph N/A Snow Light Snow
12:35 AM 22.1 °F 6.8 °F 17.4 °F 82% 29.59 in 2.5 mi West 20.7 mph 28.8 mph N/A Snow Light Snow
12:55 AM 22.1 °F 9.5 °F 15.4 °F 76% 29.59 in 3.0 mi WNW 13.8 mph 28.8 mph N/A Snow Light Snow
1:35 AM 20.8 °F 6.4 °F 18.0 °F 89% 29.62 in 0.8 mi West 17.3 mph 23.0 mph N/A Snow Light Snow
1:55 AM 20.1 °F 4.6 °F 16.5 °F 86% 29.63 in 2.5 mi West 19.6 mph 26.5 mph N/A Snow Light Snow
2:15 AM 20.3 °F 5.7 °F 14.9 °F 80% 29.64 in 7.0 mi West 17.3 mph 28.8 mph N/A Snow Light Snow
2:35 AM 20.7 °F 8.2 °F 14.7 °F 78% 29.64 in 3.0 mi West 12.7 mph 23.0 mph N/A Snow Light Snow
2:55 AM 19.9 °F 6.7 °F 16.0 °F 85% 29.65 in 0.5 mi West 13.8 mph 21.9 mph N/A Snow Light Snow
3:15 AM 19.6 °F 5.7 °F 16.2 °F 87% 29.65 in 0.5 mi West 15.0 mph 26.5 mph N/A Snow Light Snow
3:35 AM 19.2 °F 6.4 °F 15.8 °F 87% 29.66 in 0.8 mi West 12.7 mph 21.9 mph N/A Snow Light Snow
3:55 AM 18.1 °F 2.0 °F 13.1 °F 81% 29.67 in 1.8 mi West 19.6 mph 27.6 mph N/A Snow Light Snow
4:15 AM 18.3 °F 1.8 °F 10.8 °F 72% 29.68 in 5.0 mi West 20.7 mph 31.1 mph N/A   Haze
4:35 AM 17.6 °F 2.2 °F 11.3 °F 76% 29.69 in 4.0 mi West 17.3 mph 28.8 mph N/A Snow Light Snow
4:55 AM 17.2 °F 2.2 °F 10.4 °F 75% 29.69 in 3.0 mi West 16.1 mph 25.3 mph N/A Snow Light Snow
5:15 AM 16.9 °F 0.8 °F 11.1 °F 78% 29.70 in 1.8 mi West 18.4 mph 25.3 mph N/A Snow Light Snow
5:35 AM 17.2 °F 1.2 °F 10.4 °F 75% 29.70 in 4.0 mi West 18.4 mph 23.0 mph N/A Snow Light Snow
5:55 AM 16.7 °F 0.5 °F 10.9 °F 78% 29.71 in 4.0 mi West 18.4 mph - N/A Snow Light Snow
6:15 AM 16.5 °F 3.0 °F 11.8 °F 82% 29.71 in 1.2 mi West 12.7 mph 24.2 mph N/A Snow Light Snow
6:35 AM 16.7 °F 2.6 °F 11.1 °F 79% 29.73 in 3.0 mi West 13.8 mph 21.9 mph N/A Snow Light Snow
6:55 AM 16.3 °F 2.1 °F 11.3 °F 81% 29.73 in 2.0 mi West 13.8 mph 20.7 mph N/A Snow Light Snow
7:15 AM 16.5 °F -0.1 °F 10.2 °F 76% 29.74 in 3.0 mi West 19.6 mph 25.3 mph N/A Snow Light Snow
7:35 AM 16.7 °F 1.5 °F 10.0 °F 75% 29.75 in 5.0 mi West 16.1 mph 21.9 mph N/A Snow Light Snow
7:55 AM 16.9 °F 3.4 °F 9.3 °F 72% 29.76 in 7.0 mi West 12.7 mph 20.7 mph N/A   Overcast
8:15 AM 17.2 °F 2.7 °F 10.0 °F 73% 29.77 in 10.0 mi West 15.0 mph 20.7 mph N/A Snow Light Snow
8:35 AM 17.4 °F 1.0 °F 9.9 °F 72% 29.78 in 7.0 mi West 19.6 mph 26.5 mph N/A Snow Light Snow
8:55 AM 17.4 °F 2.9 °F 10.4 °F 74% 29.79 in 4.0 mi West 15.0 mph 24.2 mph N/A Snow Light Snow
9:15 AM 17.6 °F 3.2 °F 10.8 °F 75% 29.79 in 4.0 mi West 15.0 mph 25.3 mph N/A Snow Light Snow
9:35 AM 17.6 °F 1.3 °F 10.4 °F 73% 29.80 in 3.0 mi West 19.6 mph 24.2 mph N/A Snow Light Snow
9:55 AM 18.1 °F 2.4 °F 8.6 °F 66% 29.81 in 7.0 mi West 18.4 mph 27.6 mph N/A   Mostly Cloudy
10:15 AM 17.8 °F 4.6 °F 9.0 °F 68% 29.82 in 10.0 mi West 12.7 mph 19.6 mph N/A   Mostly Cloudy
10:35 AM 17.6 °F 2.7 °F 10.0 °F 72% 29.82 in 7.0 mi West 16.1 mph - N/A Snow Light Snow
10:55 AM 17.4 °F 3.5 °F 8.8 °F 69% 29.83 in 10.0 mi West 13.8 mph 24.2 mph N/A   Mostly Cloudy
11:15 AM 17.6 °F 3.2 °F 9.7 °F 71% 29.83 in 4.0 mi West 15.0 mph 19.6 mph N/A Snow Light Snow
11:35 AM 16.9 °F 3.4 °F 11.1 °F 78% 29.83 in 0.5 mi West 12.7 mph 17.3 mph N/A Snow Light Snow
11:55 AM 16.7 °F -0.3 °F 8.2 °F 69% 29.83 in 10.0 mi West 20.7 mph 25.3 mph N/A   Overcast
12:15 PM 17.1 °F 1.0 °F 8.4 °F 69% 29.83 in 10.0 mi West 18.4 mph 24.2 mph N/A   Scattered Clouds
12:35 PM 17.2 °F 2.2 °F 8.2 °F 68% 29.84 in 7.0 mi West 16.1 mph - N/A   Scattered Clouds
12:55 PM 17.4 °F 2.4 °F 7.2 °F 64% 29.85 in 5.0 mi West 16.1 mph 26.5 mph N/A   Haze
1:15 PM 16.5 °F 3.6 °F 6.6 °F 65% 29.86 in 10.0 mi West 11.5 mph 24.2 mph N/A   Mostly Cloudy
1:35 PM 16.2 °F -0.2 °F 5.9 °F 64% 29.86 in 10.0 mi West 18.4 mph 23.0 mph N/A   Overcast
1:55 PM 16.0 °F -0.4 °F 6.1 °F 65% 29.86 in 10.0 mi West 18.4 mph 26.5 mph N/A   Overcast
2:15 PM 15.8 °F -1.5 °F 6.1 °F 66% 29.86 in 10.0 mi West 20.7 mph 26.5 mph N/A   Overcast
2:35 PM 15.4 °F -2.0 °F 6.1 °F 67% 29.86 in 10.0 mi West 20.7 mph 28.8 mph N/A   Mostly Cloudy
2:55 PM 15.3 °F -1.3 °F 6.1 °F 67% 29.87 in 10.0 mi West 18.4 mph 25.3 mph N/A   Mostly Cloudy
3:15 PM 15.3 °F -0.4 °F 5.9 °F 67% 29.87 in 7.0 mi West 16.1 mph 24.2 mph N/A   Mostly Cloudy
3:35 PM 15.6 °F -1.3 °F 6.4 °F 67% 29.88 in 10.0 mi West 19.6 mph 25.3 mph N/A   Overcast
3:55 PM 14.9 °F -0.8 °F 9.0 °F 77% 29.88 in 2.0 mi West 16.1 mph 23.0 mph N/A Snow Light Snow
4:15 PM 14.5 °F 0.5 °F 7.7 °F 74% 29.89 in 5.0 mi West 12.7 mph 20.7 mph N/A Snow Light Snow
4:35 PM 14.0 °F -0.2 °F 8.4 °F 78% 29.90 in 2.5 mi West 12.7 mph 24.2 mph N/A Snow Light Snow
4:55 PM 13.6 °F -3.0 °F 6.3 °F 72% 29.91 in 5.0 mi West 17.3 mph 25.3 mph N/A   Haze
5:15 PM 13.5 °F -0.9 °F 6.4 °F 74% 29.91 in 7.0 mi West 12.7 mph 24.2 mph N/A   Overcast
5:35 PM 12.9 °F -3.9 °F 4.1 °F 68% 29.92 in 10.0 mi West 17.3 mph 27.6 mph N/A   Overcast
5:55 PM 12.6 °F -5.3 °F 4.3 °F 69% 29.94 in 5.0 mi West 19.6 mph 25.3 mph N/A Snow Light Snow
6:15 PM 12.2 °F -6.3 °F 4.3 °F 71% 29.95 in 5.0 mi West 20.7 mph 27.6 mph N/A Snow Light Snow
6:35 PM 12.0 °F -5.1 °F 4.5 °F 72% 29.96 in 5.0 mi West 17.3 mph 24.2 mph N/A   Haze
6:55 PM 11.8 °F -5.3 °F 5.7 °F 76% 29.96 in 2.5 mi West 17.3 mph - N/A Snow Light Snow
7:15 PM 11.3 °F -5.5 °F 5.9 °F 79% 29.97 in 2.0 mi West 16.1 mph 25.3 mph N/A Snow Light Snow
7:35 PM 10.8 °F -6.2 °F 6.8 °F 84% 29.98 in 1.0 mi West 16.1 mph 26.5 mph N/A Snow Light Snow
7:55 PM 10.4 °F -6.0 °F 7.0 °F 86% 29.99 in 1.0 mi West 15.0 mph - N/A Snow Light Snow
8:15 PM 10.0 °F -7.1 °F 6.4 °F 85% 29.99 in 1.5 mi West 16.1 mph 21.9 mph N/A Snow Light Snow
8:35 PM 9.5 °F -7.8 °F 5.9 °F 85% 30.00 in 1.2 mi West 16.1 mph 24.2 mph N/A Snow Light Snow
8:55 PM 9.5 °F -7.2 °F 5.9 °F 85% 30.01 in 1.2 mi West 15.0 mph - N/A Snow Light Snow
9:15 PM 9.3 °F -10.0 °F 5.4 °F 84% 30.02 in 1.5 mi West 20.7 mph 31.1 mph N/A Snow Light Snow
9:35 PM 9.3 °F -6.1 °F 5.0 °F 83% 30.03 in 1.2 mi WNW 12.7 mph 23.0 mph N/A Snow Light Snow
9:55 PM 9.3 °F -7.4 °F 5.4 °F 84% 30.03 in 1.2 mi West 15.0 mph 25.3 mph N/A Snow Light Snow
10:15 PM 9.3 °F -6.8 °F 5.9 °F 86% 30.04 in 1.2 mi West 13.8 mph 21.9 mph N/A Snow Light Snow
10:35 PM 9.3 °F -6.1 °F 5.5 °F 85% 30.05 in 1.5 mi West 12.7 mph 24.2 mph N/A Snow Light Snow
10:55 PM 9.0 °F -7.3 °F 5.0 °F 84% 30.06 in 1.5 mi West 13.8 mph 21.9 mph N/A Snow Light Snow
11:15 PM 9.0 °F -5.9 °F 5.0 °F 84% 30.07 in 1.5 mi West 11.5 mph 18.4 mph N/A Snow Light Snow
11:35 PM 8.6 °F -10.5 °F 4.1 °F 82% 30.08 in 1.2 mi West 19.6 mph 24.2 mph N/A Snow Light Snow
11:55 PM 8.2 °F -9.4 °F 4.3 °F 84% 30.08 in 1.0 mi West 16.1 mph 21.9 mph N/A Snow Light Snow